#timestamp,LO_Frequency,Hit,StdDev 
1509861615.2,286047000.6,N
1509861635.9,286046998.5,N
1509861655.7,286046998.6,N
1509861675.6,286046996.6,N
1509861695.4,286046996.7,N
1509861715.2,286047001.2,N
1509861735.1,286047000.9,N
1509861736.0,286047000.9,N
1509861755.8,286047001.2,N
1509861775.7,286047000.5,N
1509861795.5,286047002.6,N
1509861815.3,286047002.8,N
1509861835.2,286047000.6,N
1509861855.9,286047000.9,N
1509861875.7,286046999.9,N
1509861895.6,286047000.6,N
1509861915.4,286047000.3,N
1509861935.2,286047000.1,N
1509861955.1,286047002.7,N
1509861956.0,286047002.7,N
1509861975.8,286046999.7,N
1509861995.7,286046999.9,N
1509862015.5,286047000.3,N
1509862035.3,286047000.8,N
1509862055.2,286047000.8,N
1509862075.0,286047001.0,N
1509862075.9,286047001.0,N
1509862095.8,286046998.2,N
1509862115.6,286046998.1,N
1509862135.4,286047000.9,N
1509862155.3,286047002.2,N
1509862175.1,286047004.2,N
1509862176.0,286047004.2,N
1509862195.8,286047003.5,N
1509862215.7,286047003.7,N
1509862235.5,286047004.1,N
1509862255.3,286047003.5,N
1509862275.2,286047004.4,N
1509862295.0,286047003.7,N
1509862295.9,286047003.7,N
1509862315.8,286047004.1,N
1509862335.6,286047004.2,N
1509862355.4,286047001.7,N
1509862375.3,286047001.6,N
1509862395.1,286047001.3,N
1509862415.8,286047001.5,N
1509862435.7,286047001.4,N
1509862455.5,286047002.1,N
1509862475.4,286047000.0,N
1509862495.2,286047002.4,N
1509862515.0,286047002.8,N
1509862515.9,286047002.8,N
1509862535.8,286047002.7,N
1509862555.6,286047002.3,N
1509862575.5,286047002.2,N
1509862595.3,286047002.1,N
1509862615.1,286047002.0,N
1509862635.9,286047004.4,N
1509862655.7,286047003.2,N
1509862675.6,286047001.7,N
1509862695.4,286047001.5,N
1509862715.2,286047001.8,N
1509862735.1,286047002.1,N
1509862736.0,286047002.1,N
1509862755.8,286047001.9,N
1509862775.6,286047001.5,N
1509862795.5,286047002.2,N
1509862815.3,286047002.7,N
1509862835.2,286047002.0,N
1509862855.9,286047002.0,N
1509862875.7,286047002.2,N
1509862895.6,286047001.3,N
1509862915.4,286047004.3,Y
1509862935.3,286047002.5,P
1509862955.1,286047001.8,P
1509862975.8,286047001.3,P
1509862995.7,286047002.5,Y
1509863015.5,286047000.7,P
1509863035.4,286047001.1,N
1509863055.2,286047000.9,N
1509863075.0,286046998.1,Y
1509863075.9,286046998.1,P
1509863095.8,286046996.8,N
1509863115.6,286046996.6,N
1509863135.5,286046999.4,N
1509863155.3,286046996.6,N
1509863175.1,286046998.0,N
1509863195.9,286046997.8,N
1509863215.7,286046996.7,N
1509863235.5,286046997.7,N
1509863255.4,286046997.7,N
1509863275.2,286046995.1,Y
1509863295.1,286046998.4,P
1509863296.0,286046998.4,P
1509863315.8,286046999.0,P
1509863335.6,286046996.5,Y
1509863355.5,286046998.2,P
1509863375.3,286046998.3,P
1509863395.2,286047001.0,P
1509863415.9,286047001.0,N
1509863435.7,286047002.5,N
1509863455.6,286047001.3,N
1509863475.4,286047002.0,N
1509863495.2,286047002.6,N
1509863515.1,286047001.6,N
1509863516.0,286047001.6,N
1509863535.8,286047002.0,N
1509863555.7,286047001.5,N
1509863575.5,286047001.4,N
1509863595.3,286047001.9,N
1509863615.2,286047004.1,N
1509863635.0,286047003.9,N
1509863635.9,286047003.9,N
1509863655.8,286047003.7,N
1509863675.6,286047003.6,N
1509863695.4,286047001.4,N
1509863715.3,286047001.3,N
1509863735.1,286047001.6,N
1509863755.8,286047001.5,N
1509863775.7,286047002.7,N
1509863795.5,286047002.0,N
1509863815.4,286047004.4,N
1509863835.2,286047001.5,N
1509863855.0,286047001.5,N
1509863855.9,286047001.5,N
1509863875.8,286047002.0,N
1509863895.6,286047001.9,N
1509863915.5,286047004.3,Y
1509863935.3,286047001.0,P
1509863955.1,286046998.5,N
1509863975.9,286047000.9,N
1509863995.7,286047000.2,N
1509864015.5,286047000.4,N
1509864035.4,286047000.8,N
1509864055.2,286047000.7,N
1509864075.0,286047001.0,N
1509864076.0,286047001.0,N
1509864095.8,286047011.9,Y
1509864115.6,286046996.5,P
1509864135.5,286046996.6,N
1509864155.3,286046997.1,N
1509864175.1,286046997.7,N
1509864195.9,286046997.2,N
1509864215.7,286046997.5,N
1509864235.6,286046996.9,N
1509864255.4,286046998.9,N
1509864275.2,286046998.9,N
1509864295.1,286047001.2,N
1509864296.0,286047001.2,N
1509864315.8,286046998.8,N
1509864335.6,286046996.9,N
1509864355.5,286046999.5,N
1509864375.3,286046998.6,N
1509864395.2,286046998.1,N
1509864415.9,286047000.5,N
1509864435.7,286046998.1,N
1509864455.6,286047000.7,N
1509864475.4,286046997.0,N
1509864495.2,286046996.5,N
1509864515.1,286046999.1,N
1509864516.0,286046999.1,N
1509864535.8,286046998.6,N
1509864555.7,286046999.3,N
1509864575.5,286047000.7,N
1509864595.3,286047000.5,N
1509864615.2,286046998.6,N
1509864635.0,286046999.0,N
1509864635.9,286046999.0,N
1509864655.7,286046998.4,N
1509864675.6,286046998.7,N
1509864695.4,286047000.4,N
1509864715.3,286047000.1,N
1509864735.1,286047000.3,N
1509864736.0,286047000.3,N
1509864755.8,286046996.5,N
1509864775.7,286046999.4,N
1509864795.5,286047001.1,N
1509864815.3,286047001.2,N
1509864835.2,286046998.8,N
1509864855.0,286046999.2,N
1509864855.9,286046999.2,N
1509864875.8,286046999.5,N
1509864895.6,286046999.1,N
1509864915.4,286046998.9,N
1509864935.3,286046999.3,N
1509864955.1,286046999.1,N
1509864975.8,286046999.2,N
1509864995.7,286046996.5,Y
1509865015.5,286046997.0,P
1509865035.4,286046997.7,N
1509865055.2,286046997.4,N
1509865075.0,286046999.3,N
1509865075.9,286046999.3,N
1509865095.8,286046996.5,Y
1509865115.6,286046998.4,P
1509865135.5,286047000.8,P
1509865155.3,286047001.1,N
1509865175.1,286046998.3,N
1509865195.9,286046999.0,N
